This demonstration page uses our WeatherBlox Daily Observations layout. Learn more.

Left ArrowRight Arrow

53.62937, 11.41316

Hourly Observations for September 19, 2021

Temp ( °F °C ) Dew Point ( °F °C ) Humidity (%) Winds ( mph kmh ) Pressure ( in mb ) Visibility ( mi km ) Precip ( " mm )
7:50 am 07:50 Mostly Cloudy 54 12 48 9 82 82 E 2 4 30.09 1019 30 48 N/A
8:20 am 08:20 Mostly Cloudy 52 11 50 10 94 94 NE 5 7 30.09 1019 30 48 N/A
8:50 am 08:50 Mostly Cloudy 54 12 50 10 88 88 ENE 5 7 30.09 1019 30 48 N/A
9:20 am 09:20 Mostly Cloudy 54 12 48 9 82 82 E 5 7 30.09 1019 30 48 N/A
9:50 am 09:50 Mostly Cloudy 54 12 48 9 82 82 E 5 7 30.09 1019 30 48 N/A
10:20 am 10:20 Mostly Cloudy 55 13 48 9 77 77 E 5 7 30.12 1020 30 48 N/A
10:50 am 10:50 Mostly Cloudy 55 13 48 9 77 77 E 3 6 30.12 1020 30 48 N/A
11:20 am 11:20 Mostly Cloudy 55 13 48 9 77 77 VRB 2 4 30.12 1020 30 48 N/A
11:50 am 11:50 Mostly Cloudy 57 14 48 9 72 72 VRB 1 2 30.12 1020 30 48 N/A
12:20 pm 12:20 Mostly Cloudy 57 14 48 9 72 72 NE 5 7 30.12 1020 30 48 N/A
12:50 pm 12:50 Mostly Sunny 59 15 48 9 68 68 NE 5 7 30.12 1020 7 11 N/A
1:20 pm 13:20 Mostly Sunny 59 15 46 8 63 63 ENE 7 11 30.12 1020 30 48 N/A
1:50 pm 13:50 Partly Cloudy 59 15 48 9 68 68 E 6 9 30.09 1019 30 48 N/A
2:20 pm 14:20 Mostly Cloudy 57 14 48 9 72 72 E 7 11 30.09 1019 30 48 N/A
2:50 pm 14:50 Mostly Cloudy 59 15 48 9 68 68 NE 6 9 30.09 1019 30 48 N/A
3:20 pm 15:20 Mostly Sunny 59 15 46 8 63 63 E 6 9 30.09 1019 30 48 N/A
3:50 pm 15:50 Mostly Sunny 59 15 46 8 63 63 ENE 10 17 30.09 1019 30 48 N/A
4:20 pm 16:20 Mostly Sunny 59 15 46 8 63 63 E 9 15 30.09 1019 30 48 N/A
4:50 pm 16:50 Mostly Sunny 59 15 46 8 63 63 E 8 13 30.09 1019 30 48 N/A
5:20 pm 17:20 Mostly Sunny 59 15 46 8 63 63 ENE 8 13 30.09 1019 30 48 N/A
5:50 pm 17:50 Mostly Sunny 59 15 46 8 63 63 ENE 8 13 30.09 1019 7 11 N/A
6:20 pm 18:20 Mostly Cloudy 57 14 46 8 67 67 E 9 15 30.09 1019 30 48 N/A
6:50 pm 18:50 Mostly Sunny 55 13 48 9 77 77 E 8 13 30.09 1019 7 11 N/A
7:20 pm 19:20 Mostly Sunny 55 13 48 9 77 77 E 8 13 30.09 1019 7 11 N/A
7:50 pm 19:50 Mostly Clear 55 13 46 8 72 72 E 8 13 30.09 1019 7 11 N/A
8:20 pm 20:20 Mostly Clear 55 13 46 8 72 72 E 7 11 30.12 1020 7 11 N/A
8:50 pm 20:50 Mostly Clear 54 12 48 9 82 82 ENE 6 9 30.12 1020 7 11 N/A
9:20 pm 21:20 Mostly Clear 54 12 46 8 77 77 E 8 13 30.12 1020 7 11 N/A
9:50 pm 21:50 Mostly Clear 54 12 46 8 77 77 E 7 11 30.12 1020 7 11 N/A

Powered by AerisWeather